Hourly Data Report for October 08, 2014

All times are specified in Local Standard Time (LST). Add 1 hour to adjust for Daylight Saving Time where and when it is observed.

WINNIPEG A CS
MANITOBA

49°55'00.000" N
97°14'58.000" W
238.70 m
502S001
71849
XWG

Download Data

Hourly Data (October 2014)
Hourly Data Report for October 8, 2014
Temp Definition
°C
Dew Point Temp Definition
°C
Rel Hum Definition
%
Wind Dir Definition
10's deg

Wind Spd Definition
km/h
Visibility Definition
km
Stn Press Definition
kPa
Hmdx Definition


Wind Chill Definition


Weather Definition


TIME
00:00 -0.6 -2.5 87 31 15   98.18   -5 LegendNANA
01:00 -0.2 -2.0 88 31 18   98.23   -5 LegendNANA
02:00 0.5 -0.9 90 29 15   98.26     LegendNANA
03:00 1.9 -0.1 87 29 20   98.30     LegendNANA
04:00 0.1 -0.8 94 28 16   98.34     LegendNANA
05:00 -0.4 -1.3 93 29 14   98.42   -5 LegendNANA
06:00 0.8 -0.3 92 30 15   98.49     LegendNANA
07:00 1.6 0.6 93 29 14   98.57     LegendNANA
08:00 3.2 -0.1 79 33 28   98.65     LegendNANA
09:00 4.0 0.3 77 33 30   98.70     LegendNANA
10:00 4.6 0.5 75 33 31   98.76     LegendNANA
11:00 5.6 0.9 71 32 29   98.83     LegendNANA
12:00 6.5 0.2 64 33 31   98.87     LegendNANA
13:00 6.5 0.1 63 32 25   98.88     LegendNANA
14:00 6.7 0.5 65 31 24   98.90     LegendNANA
15:00 6.7 0.8 66 32 22   98.93     LegendNANA
16:00 6.8 0.5 64 33 23   98.95     LegendNANA
17:00 5.9 -0.4 64 32 24   98.95     LegendNANA
18:00 4.1 -0.5 72 31 16   98.97     LegendNANA
19:00 1.6 -1.1 82 31 15   99.03     LegendNANA
20:00 0.5 -1.5 86 31 15   99.06     LegendNANA
21:00 0.1 -1.9 87 31 15   99.11     LegendNANA
22:00 -1.8 -2.7 93 28 14   99.14   -6 LegendNANA
23:00 -1.4 -2.3 93 30 17   99.18   -7 LegendNANA

Notes on Data Quality.

Legend

  • E = Estimated
  • M = Missing
  • NA = Not Available
  • ‡ = Partner data that is not subject to review by the National Climate Archives
Date modified: